Location: Le Vaud
(46.4779°N, 6.2346°E)
Time: 08:51:49
(UTC+00:00)

STARLINK-1069 - Pass Details

Date: 18 February 2020
Orbit: 375 x 384 km, 53.0° (Epoch: 01 April)

Event Time Altitude Azimuth Distance (km) Brightness Sun altitude
Exits shadow 05:41:08 11° 246° (WSW) 1,343 5.1 -9.9°
Maximum altitude 05:44:07 74° 331° (NNW) 407 2.8 -9.4°
Drops below altitude 10° 05:47:17 10° 58° (ENE) 1,415 6.5 -8.8°
Sets 05:49:20 0° 60° (ENE) 2,269 7.7 -8.5°
